Lima, OH

7:05 PM EDT on August 29, 2016 (GMT -0400)
Lima Allen County

Weather History for KAOH - March, 2013

Change the Weather History Date:

Sunday, March 17, 2013

  Actual Average (KFDY) Record (KFDY)
Temperature  
Mean Temperature 30 °F -  
Max Temperature 33 °F 44 °F 77 °F (2012)
Min Temperature 28 °F 27 °F 9 °F (1956)
Degree Days  
Heating Degree Days 34    
Moisture  
Dew Point 23 °F    
Average Humidity 73    
Maximum Humidity 82    
Minimum Humidity 64    
Precipitation  
Precipitation 0.00 in - - ()
Sea Level Pressure  
Sea Level Pressure 30.15 in    
Wind  
Wind Speed 9 mph (NE)    
Max Wind Speed 16 mph    
Max Gust Speed 22 mph    
Visibility 10 miles    
Events      
Averages and records for this station are not official NWS values.
T = Trace of Precipitation, MM = Missing Value Source: NWS Daily Summary

Daily Weather History Graph

Daily Weather History Graph

Search for Another Location

Airport or City:

Trip Planner

Search our weather history database for the weather conditions in past years. The results will help you decide how hot, cold, wet, or windy it might be!

Date:

Astronomy

Mar. 17, 2013 Rise Set
Actual Time 7:44 AM EDT 7:45 PM EDT
Civil Twilight 7:16 AM EDT 8:12 PM EDT
Nautical Twilight 6:44 AM EDT 8:44 PM EDT
Astronomical Twilight 6:12 AM EDT 9:16 PM EDT
Moon 10:54 AM EDT (3/17) 12:54 AM EDT (3/17)
Length of Visible Light 12h 55m
Length of Day
12h 01m
Waxing Crescent, 31% of the Moon is Illuminated
Mar 17
Waxing Crescent
Mar 19
First Quarter
Mar 27
Full
Apr 3
Last Quarter
Apr 10
New

Hourly Weather History & Observations

Time (EDT) Temp. Windchill Dew Point Humidity Pressure Visibility Wind Dir Wind Speed Gust Speed Precip Events Conditions
12:53 AM 32.0 °F 27.5 °F 27.0 °F 82% 30.06 in 9.0 mi NNW 4.6 mph - N/A   Overcast
1:53 AM 32.0 °F 25.6 °F 27.0 °F 82% 30.06 in 9.0 mi North 6.9 mph - N/A   Overcast
2:53 AM 32.0 °F 25.6 °F 27.0 °F 82% 30.08 in 10.0 mi North 6.9 mph - N/A   Overcast
3:53 AM 30.9 °F 25.2 °F 26.1 °F 82% 30.09 in 10.0 mi North 5.8 mph - N/A   Overcast
4:53 AM 30.9 °F 25.2 °F 26.1 °F 82% 30.08 in 10.0 mi North 5.8 mph - N/A   Overcast
5:53 AM 30.0 °F 20.5 °F 23.0 °F 75% 30.11 in 10.0 mi North 11.5 mph - N/A   Overcast
6:53 AM 28.9 °F 17.3 °F 23.0 °F 78% 30.13 in 10.0 mi NNE 16.1 mph - N/A   Overcast
7:53 AM 28.0 °F 18.6 °F 19.9 °F 72% 30.17 in 10.0 mi NNE 10.4 mph - N/A   Overcast
8:01 AM 28.4 °F 20.4 °F 21.2 °F 74% 30.14 in 10.0 mi NNE 8.1 mph - N/A   Overcast
8:53 AM 28.9 °F 19.2 °F 19.0 °F 67% 30.21 in 10.0 mi NNE 11.5 mph - N/A   Overcast
9:53 AM 28.9 °F 18.2 °F 18.0 °F 64% 30.22 in 10.0 mi NNE 13.8 mph - N/A   Partly Cloudy
10:53 AM 28.9 °F 19.2 °F 18.0 °F 64% 30.21 in 10.0 mi NE 11.5 mph 18.4 mph N/A   Clear
11:53 AM 30.0 °F 21.1 °F 19.9 °F 66% 30.22 in 10.0 mi NE 10.4 mph - N/A   Scattered Clouds
12:14 PM 30.2 °F 20.2 °F 21.2 °F 69% 30.18 in 10.0 mi ENE 12.7 mph - N/A   Mostly Cloudy
12:53 PM 30.9 °F 21.7 °F 21.9 °F 69% 30.21 in 10.0 mi NE 11.5 mph - N/A   Mostly Cloudy
1:53 PM 33.1 °F 26.9 °F 24.1 °F 70% 30.20 in 10.0 mi ENE 6.9 mph - N/A   Overcast
2:53 PM 33.1 °F 24.9 °F 25.0 °F 72% 30.19 in 10.0 mi ENE 10.4 mph - N/A   Overcast
3:53 PM 33.1 °F 24.9 °F 24.1 °F 70% 30.17 in 10.0 mi NE 10.4 mph - N/A   Overcast
4:53 PM 33.1 °F 23.0 °F 25.0 °F 72% 30.17 in 10.0 mi ENE 15.0 mph 18.4 mph N/A   Overcast
5:53 PM 32.0 °F 22.5 °F 24.1 °F 73% 30.17 in 10.0 mi NE 12.7 mph - N/A   Overcast
6:53 PM 32.0 °F 22.1 °F 24.1 °F 73% 30.14 in 10.0 mi ENE 13.8 mph - N/A   Overcast
7:53 PM 30.9 °F 22.8 °F 23.0 °F 72% 30.15 in 10.0 mi ENE 9.2 mph - N/A   Scattered Clouds
8:53 PM 30.0 °F 20.0 °F 23.0 °F 75% 30.17 in 10.0 mi ENE 12.7 mph - N/A   Clear
9:53 PM 28.9 °F 17.7 °F 21.9 °F 75% 30.15 in 10.0 mi ENE 15.0 mph 19.6 mph N/A   Clear
10:53 PM 28.9 °F 17.7 °F 21.0 °F 72% 30.13 in 10.0 mi ENE 15.0 mph 21.9 mph N/A   Clear
11:53 PM 28.0 °F 17.0 °F 21.0 °F 75% 30.11 in 10.0 mi ENE 13.8 mph - N/A   Clear